{"data":{"norad_id":63034,"intl_designator":"2025-034F","name":"STARLINK-32830","alt_names":[],"object_type":"PAYLOAD","status":"ACTIVE","operator":null,"country":"US","launch_date":"2025-02-18","launch_site_code":"AFETR","launch_vehicle":null,"mission":null,"orbit_class":"UNKNOWN","rcs_meters":null,"size_class":null,"mass_kg":null,"dimensions":null,"purposes":["comms"],"wikipedia_slug":null,"has_3d_model":false,"image_url":null,"decayed_at":null,"tle_current":{"epoch":"2026-05-25T01:30:31.391712Z","epoch_age_seconds":63569,"freshness":"FRESH","line1":"1 63034U 25034F   26145.06286333  .00013806  00000+0  45565-3 0  9994","line2":"2 63034  53.1597 263.1119 0001218 100.8854 259.2285 15.31713604 70785","mean_motion":15.31713604,"eccentricity":0.0001218,"inclination_deg":53.1597,"raan_deg":263.1119,"arg_perigee_deg":100.8854,"mean_anomaly_deg":259.2285,"bstar":0.00045565,"rev_number":7078,"period_min":94.012352977705,"perigee_km":469.86525443097,"apogee_km":471.53363098841,"semimajor_km":6848.8364427097,"source":"CELESTRAK","updated_at":"2026-05-25T13:38:19.866125Z"}}}